Regional Weather Roundup
Issued by NWS Albany, NY

Home | Current Version | Previous Version | Text Only | Print | Product List | Glossary On
Versions: 1 2 3 4 5 6 7 8 9 10 11 12 13 14 15 16 17 18 19 20 21 22 23 24 25 26 27 28 29 30 31 32 33 34 35 36 37 38 39 40 41 42 43 44 45 46 47 48 49 50
000
ASUS41 KALY 301310
RWRALY

NEW YORK STATE HOURLY WEATHER ROUNDUP
NATIONAL WEATHER SERVICE ALBANY NY
900 AM EDT MON MAY 30 2016

NOTE: "FAIR" INDICATES FEW OR NO CLOUDS BELOW 12,000 FEET WITH NO
SIGNIFICANT WEATHER AND/OR NO OBSTRUCTIONS TO VISIBILITY.

NYZ032-033-038>043-046>054-057>066-NYZ062>081-082-084-301400-
EAST


CITY           SKY/WX    TMP DP  RH WIND       PRES   REMARKS
ALBANY         PTSUNNY   68  62  81 S10       29.98S
GLENS FALLS    CLOUDY    70  63  78 S12       29.96S
POUGHKEEPSIE   CLOUDY    68  63  84 CALM      29.99F
NEWBURGH       CLOUDY    66  66 100 W7        30.02S FOG
MONTGOMERY     CLOUDY    67  64  90 W3        30.01S
WHITE PLAINS   FOG       68  66  93 NW6       30.01R VSB 1
ISLIP          LGT RAIN  67  66  97 SW13      30.01R FOG
NEW YORK CITY  CLOUDY    70  65  84 W7        30.00R
CENTRAL PARK   CLOUDY    69  67  93 VRB3      30.04R FOG
$$

NYZ005>009-017-018-044>046-055-056-301400-
CENTRAL


CITY           SKY/WX    TMP DP  RH WIND       PRES   REMARKS
FULTON         SUNNY     76  64  66 SW8       29.94S
SYRACUSE       MOSUNNY   74  62  66 SW10      29.94S
ROME           MOSUNNY   72  63  73 S6        29.97S
ELMIRA         SUNNY     71  61  70 SW7       29.99F
BINGHAMTON     MOSUNNY   67  59  75 SW9       30.02S
MONTICELLO     CLOUDY    63  63 100 NW6       30.05F
$$

NYZ026>034-041>043-087-301400-
NORTH


CITY           SKY/WX    TMP DP  RH WIND       PRES   REMARKS
WATERTOWN      MOSUNNY   74  59  59 SW17G26   29.91S
FORT DRUM      NOT AVBL
MASSENA        SUNNY     76  61  59 SW16      29.87F
SARANAC LAKE   MOSUNNY   68  60  75 SW9       29.93F
PLATTSBURGH    CLOUDY    67  65  93 SE6       29.89S
$$

NYZ001>004-010>016-019>021-085-301400-
WEST


CITY           SKY/WX    TMP DP  RH WIND       PRES   REMARKS
NIAGARA FALLS  MOSUNNY   73  60  63 W9        29.95S
BUFFALO        MOSUNNY   69  60  73 W13       29.97S
DUNKIRK        LGT RAIN  71  61  70 SW10      29.99S
WELLSVILLE     SUNNY     68  60  75 W8        30.05S
ROCHESTER      MOSUNNY   73  63  70 W10       29.95S
PENN YAN       SUNNY     71  61  70 S8        29.98S
$$

             KEY
       WCI = WIND CHILL INDEX
       VSB = VISIBILITY
       HX  = HEAT INDEX
$$



USA.gov is the U.S. government's official web portal to all federal, state and local government web resources and services.